GPS BIIRM-4 (PRN 15)

Last updated on Mon Oct 27 2025 00:03:23 GMT+0000 (Coordinated Universal Time)

1 32260U 07047A 25298.89059002 .00000018 00000+0 00000+0 0 9997 2 32260 53.9210 89.7345 0164674 84.5254 277.3474 2.00566543132110
UTC large
Height (km)
Speed (km/s)
/
Latitude / Longitude
Inclination (degrees)
Orbital Period (minutes)
Azimuth
Elevation
Range (km)
Doppler Factor

Next 0 passes for location: London (51.5072 / 0.1276)

Sorry there are no passes over London.